[Iaude] MPEC V182: 2023 VF6 [a=0.92,e=0.12,i=8.9,H=27.1]

mpec at marsden.cfa.harvard.edu mpec at marsden.cfa.harvard.edu
Fri Nov 10 16:08:33 EST 2023


M.P.E.C. 2023-V182                            Issued 2023 November 10, 21:06 UT

     The Minor Planet Electronic Circulars contain information on unusual
         minor planets, routine data on comets and natural satellites,
         and occasional editorial announcements.  They are published
    on behalf of Division F of the International Astronomical Union by the
          Minor Planet Center, Smithsonian Astrophysical Observatory,
                          Cambridge, MA 02138, U.S.A.
			  
             Prepared using the Tamkin Foundation Computer Network

                              MPC at CFA.HARVARD.EDU
            URL https://www.minorplanetcenter.net/    ISSN 1523-6714

                                    2023 VF6                                    


Observations:
     K23V06F* C2023 11 10.26183201 12 53.583+19 34 56.12         19.41wXEV182F52
     K23V06F  C2023 11 10.27232801 12 56.551+19 29 05.45         19.68wXEV182F52
     K23V06F  C2023 11 10.28270101 12 59.419+19 23 18.57         19.38wXEV182F52
     K23V06F mC2023 11 10.36981701 13 02.363+18 32 05.75         19.31GVEV182I52
     K23V06F mC2023 11 10.37009901 13 02.464+18 31 56.28         19.42GVEV182I52
     K23V06F mC2023 11 10.37037301 13 02.557+18 31 47.03         19.02GVEV182I52
     K23V06F mC2023 11 10.37064701 13 02.665+18 31 38.14         19.33GVEV182I52
     K23V06F 1C2023 11 10.74085 01 16 23.71 +15 10 03.2          19.8 VXEV182033
     K23V06F 1C2023 11 10.74113 01 16 23.78 +15 09 55.3          20.0 VXEV182033
     K23V06F 1C2023 11 10.74341 01 16 24.55 +15 08 44.1          19.0 VXEV182033
     K23V06F 1C2023 11 10.74399 01 16 24.75 +15 08 26.3          18.9 VXEV182033
     K23V06F KC2023 11 10.78089801 16 39.658+14 49 13.66         19.7 GVEV182J95
     K23V06F KC2023 11 10.78494501 16 40.982+14 47 08.84         19.5 GVEV182J95
     K23V06F KC2023 11 10.78899101 16 42.262+14 45 05.47         20.0 GVEV182J95

Observer details:
033 Karl Schwarzschild Observatory, Tautenburg.  Observers S. Melnikov, C.
    Hogner, F. Ludwig, M. Hartmann, B. Stecklum.  Measurer B. Stecklum.
    1.34-m f/3 Schmidt + CCD.
F52 Pan-STARRS 2, Haleakala.  Observers J. Bulger, T. Lowe, P. Minguez, A.
    Schultz, I. Smith.  Measurers K. Chambers, T. de Boer, J. Fairlamb, H.
    Gao, M. Huber, C.-C. Lin, E. Magnier, Y. Ramanjooloo, R. Wainscoat, R.
    Weryk.  1.8-m Ritchey-Chretien + CCD.
I52 Steward Observatory, Mt. Lemmon Station.  Observer H. Groeller.  Measurers
    E. C. Beshore, D. Fay, J. B. Fazekas, D. C. Fuls, A. R. Gibbs, A. D.
    Grauer, H. Groeller, J. K. Hogan, R. A. Kowalski, S. M. Larson, G. J.
    Leonard, D. Rankin, R. L. Seaman, F. C. Shelly, K. W. Wierzchos.  1.0-m
    prime focus + CCD.
J95 Great Shefford.  Observer P. Birtwhistle.  0.41-m f/6.3 Schmidt-Cassegrain
    + CCD.

Orbital elements:
2023 VF6                                                 Earth MOID = 0.0149 AU
Epoch 2023 Sept. 13.0 TT = JDT 2460200.5                Bell                    
M  72.54051              (2000.0)            P               Q                  
n   1.11682293     Peri.   32.83139     -0.16140835     +0.98012712             
a   0.9200537      Node   228.16246     -0.93555277     -0.18915994             
e   0.1191098      Incl.    8.90408     -0.31414703     +0.05974401             
P   0.88           H   27.17          G   0.15           U   7                  
Residuals in seconds of arc
231110 F52  0.1+  0.4-    231110 I52  0.0   0.0     231110 033  0.1+  0.3-
231110 F52  0.0   0.1+    231110 I52  0.1+  0.4+    231110 J95  0.1-  0.2+
231110 F52  0.0   0.4+    231110 033  0.0   0.3-    231110 J95  0.2+  0.4-
231110 I52  0.1-  0.2-    231110 033  0.3-  0.4+    231110 J95  0.1-  0.3+
231110 I52  0.0   0.1-    231110 033  0.0   0.4-

Ephemeris:
2023 VF6                 a,e,i = 0.92, 0.12, 9                   q = 0.8105
Date    TT    R. A. (2000) Decl.     Delta      r    Elong.  Phase     V
2023 10 11    14 19 18.0 +51 17 15   0.08814 0.9579    60.3   115.1    26.3
...
2023 10 26    14 50 37.0 +63 13 03   0.04395 0.9846    76.0   101.5    24.1
...
2023 11 03    19 10 13.7 +79 47 00   0.02233 0.9967   101.1    77.6    21.6
...
2023 11 09    01 00 43.3 +32 33 40   0.01610 1.0047   149.9    29.7    19.5
2023 11 10    01 10 28.6 +22 06 56   0.01709 1.0059   154.1    25.4    19.5
2023 11 11    01 17 50.8 +13 03 42   0.01861 1.0071   154.5    25.0    19.7
...
2023 11 17    01 40 44.4 -15 41 29   0.03350 1.0136   136.8    41.9    21.5
...
2023 11 25    01 54 06.0 -26 47 46   0.05797 1.0205   123.6    53.6    23.0
...
2023 12 10    02 09 51.6 -31 27 26   0.1051  1.0280   111.4    63.1    24.6

M. P. C. Staff               (C) Copyright 2023 MPC           M.P.E.C. 2023-V182




More information about the Iaude mailing list